| time (UTC) | temp F | wind direction | speed knots | gust knots | rain 1hr in | rain 24hr in | rain mn in | humidity % | barometer mb |
| 20260504000017 | 57 | 203 | 0.9 | 7.8 | 0.00 | 0.00 | 0.00 | 64 | 1011.4 |
| 20260503235017 | 57 | 293 | 1.7 | 12.2 | 0.00 | 0.00 | 0.00 | 63 | 1011.2 |
| 20260503234017 | 57 | 225 | 1.7 | 6.1 | 0.00 | 0.00 | 0.00 | 65 | 1011.4 |
| 20260503233017 | 57 | 225 | 0.9 | 6.1 | 0.00 | 0.00 | 0.00 | 65 | 1011.6 |
| 20260503232037 | 57 | 225 | 1.7 | 6.1 | 0.00 | 0.00 | 0.00 | 63 | 1012.0 |
| 20260503231037 | 57 | 225 | 0.9 | 5.2 | 0.00 | 0.00 | 0.00 | 63 | 1012.0 |
| 20260503230017 | 57 | 225 | 1.7 | 7.0 | 0.00 | 0.00 | 0.00 | 62 | 1011.6 |
| 20260503225017 | 58 | 225 | 2.6 | 9.6 | 0.00 | 0.00 | 0.00 | 60 | 1011.3 |
| 20260503224017 | 58 | 225 | 1.7 | 7.0 | 0.00 | 0.00 | 0.00 | 60 | 1011.8 |
| 20260503223018 | 58 | 203 | 1.7 | 8.7 | 0.00 | 0.00 | 0.00 | 59 | 1012.2 |
| 20260503222017 | 58 | 225 | 0.9 | 6.1 | 0.00 | 0.00 | 0.00 | 60 | 1012.4 |
| 20260503221018 | 59 | 225 | 1.7 | 7.8 | 0.00 | 0.00 | 0.00 | 59 | 1012.5 |
| 20260503220017 | 59 | 203 | 3.5 | 9.6 | 0.00 | 0.00 | 0.00 | 54 | 1012.2 |
| 20260503215015 | 59 | 225 | 1.7 | 8.7 | 0.00 | 0.00 | 0.00 | 55 | 1012.6 |
| 20260503214017 | 60 | 203 | 2.6 | 7.0 | 0.00 | 0.00 | 0.00 | 54 | 1013.0 |
| 20260503213017 | 60 | 248 | 3.5 | 9.6 | 0.00 | 0.00 | 0.00 | 50 | 1012.9 |
| 20260503212017 | 61 | 225 | 3.5 | 8.7 | 0.00 | 0.00 | 0.00 | 50 | 1012.6 |
| 20260503211017 | 61 | 203 | 4.3 | 12.2 | 0.00 | 0.00 | 0.00 | 50 | 1013.3 |
| 20260503210017 | 61 | 248 | 1.7 | 9.6 | 0.00 | 0.00 | 0.00 | 52 | 1013.3 |
| 20260503205017 | 61 | 203 | 3.5 | 11.3 | 0.00 | 0.00 | 0.00 | 51 | 1013.7 |
| 20260503204017 | 61 | 203 | 3.5 | 10.4 | 0.00 | 0.00 | 0.00 | 50 | 1014.3 |
| 20260503203017 | 61 | 225 | 2.6 | 10.4 | 0.00 | 0.00 | 0.00 | 49 | 1014.5 |
| 20260503202017 | 61 | 293 | 3.5 | 9.6 | 0.00 | 0.00 | 0.00 | 49 | 1014.9 |
| 20260503201017 | 62 | 270 | 2.6 | 8.7 | 0.00 | 0.00 | 0.00 | 49 | 1015.3 |
| 20260503200017 | 63 | 203 | 3.5 | 9.6 | 0.00 | 0.00 | 0.00 | 48 | 1015.2 |
| 20260503195037 | 62 | 225 | 0.9 | 6.1 | 0.00 | 0.00 | 0.00 | 46 | 1015.3 |
| 20260503194017 | 62 | 270 | 2.6 | 10.4 | 0.00 | 0.00 | 0.00 | 47 | 1015.6 |
| 20260503193018 | 61 | 203 | 1.7 | 6.1 | 0.00 | 0.00 | 0.00 | 47 | 1015.9 |
| 20260503192017 | 62 | 203 | 5.2 | 13.0 | 0.00 | 0.00 | 0.00 | 47 | 1016.1 |
| 20260503191037 | 61 | 203 | 4.3 | 11.3 | 0.00 | 0.00 | 0.00 | 45 | 1015.6 |
| 20260503190017 | 62 | 270 | 3.5 | 12.2 | 0.00 | 0.00 | 0.00 | 48 | 1015.8 |
| 20260503185017 | 61 | 248 | 3.5 | 11.3 | 0.00 | 0.00 | 0.00 | 50 | 1016.0 |
| 20260503184018 | 61 | 293 | 1.7 | 6.1 | 0.00 | 0.00 | 0.00 | 50 | 1016.0 |
| 20260503183017 | 61 | 225 | 3.5 | 12.2 | 0.00 | 0.00 | 0.00 | 45 | 1016.3 |
| 20260503182017 | 62 | 248 | 3.5 | 10.4 | 0.00 | 0.00 | 0.00 | 48 | 1016.6 |
| 20260503181037 | 61 | 203 | 2.6 | 9.6 | 0.00 | 0.00 | 0.00 | 46 | 1016.7 |
| 20260503180037 | 61 | 225 | 3.5 | 12.2 | 0.00 | 0.00 | 0.00 | 49 | 1017.2 |
| 20260503175017 | 60 | 248 | 3.5 | 9.6 | 0.00 | 0.00 | 0.00 | 46 | 1017.4 |
| 20260503174017 | 60 | 225 | 4.3 | 11.3 | 0.00 | 0.00 | 0.00 | 44 | 1017.5 |
| 20260503173017 | 59 | 225 | 4.3 | 12.2 | 0.00 | 0.00 | 0.00 | 48 | 1017.7 |
| 20260503172017 | 59 | 225 | 2.6 | 10.4 | 0.00 | 0.00 | 0.00 | 51 | 1017.9 |
| 20260503171017 | 59 | 225 | 1.7 | 9.6 | 0.00 | 0.00 | 0.00 | 49 | 1017.8 |
| 20260503131037 | 45 | 248 | 1.7 | 5.2 | 0.00 | 0.00 | 0.00 | 65 | 1019.6 |
| 20260503081017 | 40 | 0.0 | 1.7 | 0.00 | 0.00 | 0.00 | 71 | 1018.9 | |
| 20260503072017 | 40 | 0.0 | 0.9 | 0.00 | 0.00 | 0.00 | 71 | 1018.8 | |
| 20260503071017 | 40 | 0.0 | 0.0 | 0.00 | 0.00 | 0.00 | 71 | 1018.8 | |
| 20260503055017 | 40 | 0.0 | 3.5 | 0.00 | 0.00 | 0.00 | 71 | 1019.2 | |
| 20260503054018 | 40 | 0.0 | 0.0 | 0.00 | 0.00 | 0.00 | 71 | 1019.2 | |
| 20260503053038 | 40 | 0.0 | 0.0 | 0.00 | 0.00 | 0.00 | 71 | 1019.3 | |
| 20260503052017 | 40 | 0.0 | 0.0 | 0.00 | 0.00 | 0.00 | 71 | 1019.4 | |
| 20260503051037 | 40 | 0.0 | 0.0 | 0.00 | 0.00 | 0.00 | 72 | 1019.5 | |
| 20260503050017 | 40 | 0.0 | 0.0 | 0.00 | 0.00 | 0.00 | 73 | 1019.5 | |
| 20260503045017 | 40 | 0.0 | 0.0 | 0.00 | 0.00 | 0.00 | 75 | 1019.4 | |
| 20260503044038 | 40 | 0.0 | 0.0 | 0.00 | 0.00 | 0.00 | 77 | 1019.4 | |
| 20260503043017 | 40 | 0.0 | 0.0 | 0.00 | 0.00 | 0.00 | 77 | 1019.5 | |
| 20260503042018 | 40 | 0.0 | 0.0 | 0.00 | 0.00 | 0.00 | 76 | 1019.4 | |
| 20260503041037 | 41 | 0.0 | 0.0 | 0.00 | 0.00 | 0.00 | 72 | 1019.2 | |
| 20260503040017 | 41 | 0.0 | 0.0 | 0.00 | 0.00 | 0.00 | 72 | 1019.4 | |
| 20260503035037 | 41 | 0.0 | 0.0 | 0.00 | 0.00 | 0.00 | 73 | 1019.3 | |
| 20260503034037 | 41 | 0.0 | 0.0 | 0.00 | 0.00 | 0.00 | 68 | 1019.2 | |
| 20260503033018 | 42 | 0.0 | 0.0 | 0.00 | 0.00 | 0.00 | 68 | 1019.4 | |
| 20260503032017 | 42 | 0.0 | 0.0 | 0.00 | 0.00 | 0.00 | 67 | 1019.3 | |
| 20260503031017 | 42 | 0.0 | 0.0 | 0.00 | 0.00 | 0.00 | 67 | 1019.3 | |
| 20260503030017 | 42 | 0.0 | 0.0 | 0.00 | 0.00 | 0.00 | 66 | 1019.4 | |
| 20260503025018 | 42 | 0.0 | 0.0 | 0.00 | 0.00 | 0.00 | 69 | 1019.4 | |
| 20260503024017 | 42 | 0.0 | 0.0 | 0.00 | 0.00 | 0.00 | 69 | 1019.4 | |
| 20260503023037 | 43 | 0.0 | 0.0 | 0.00 | 0.00 | 0.00 | 68 | 1019.3 | |
| 20260503022017 | 43 | 0.0 | 0.0 | 0.00 | 0.00 | 0.00 | 65 | 1019.0 | |
| 20260503021037 | 43 | 0.0 | 0.0 | 0.00 | 0.00 | 0.00 | 64 | 1019.0 | |
| 20260503020017 | 43 | 0.0 | 0.0 | 0.00 | 0.00 | 0.00 | 65 | 1018.9 | |
| 20260503015017 | 43 | 0.0 | 0.0 | 0.00 | 0.00 | 0.00 | 67 | 1018.7 | |
| 20260503014017 | 43 | 0.0 | 0.0 | 0.00 | 0.00 | 0.00 | 65 | 1018.6 | |
| 20260503013018 | 44 | 0.0 | 0.0 | 0.00 | 0.00 | 0.00 | 63 | 1018.4 | |
| 20260503012017 | 45 | 0.0 | 0.0 | 0.00 | 0.00 | 0.00 | 61 | 1018.4 | |
| 20260503011017 | 45 | 0.0 | 0.0 | 0.00 | 0.00 | 0.00 | 60 | 1018.3 | |
| 20260503010017 | 46 | 0.0 | 0.0 | 0.00 | 0.00 | 0.00 | 58 | 1018.3 | |
| 20260503005017 | 47 | 0.0 | 0.0 | 0.00 | 0.00 | 0.00 | 57 | 1018.3 | |
| 20260503004038 | 47 | 0.0 | 0.0 | 0.00 | 0.00 | 0.00 | 56 | 1018.3 | |
| 20260503003017 | 48 | 0.0 | 0.0 | 0.00 | 0.00 | 0.00 | 56 | 1018.4 | |
| 20260503002037 | 49 | 0.0 | 0.0 | 0.00 | 0.00 | 0.00 | 51 | 1018.3 | |
| 20260503001017 | 50 | 0.0 | 0.0 | 0.00 | 0.00 | 0.00 | 49 | 1018.2 |